Location: Colonia Mina de C?rbuni
(46.1667°N, 22.7167°E)
Time: 06:14:12
(UTC+00:00)

Tiros 1 - Pass Details

Date: 30 April 2024
Orbit: 624 x 657 km, 48.4° (Epoch: 25 May)

Event Time Altitude Azimuth Distance (km) Brightness Sun altitude
Rises 20:03:38 0° 256° (WSW) 2,953 10.9 -20.8°
Reaches altitude 10° 20:05:58 10° 258° (WSW) 2,039 10.0 -21.0°
Maximum altitude 20:10:41 81° 345° (NNW) 652 7.1 -21.5°
Enters shadow 20:13:36 23° 72° (ENE) 1,362 8.6 -21.8°
